Location: Azeville
(49.4589°N, 1.3131°W)
Time: 05:35:34
(UTC+00:00)

Daily predictions for brighter satellites

Satellite Brightness Start Highest point End
(mag) Time Altitude Azimuth Time Altitude Azimuth Time Altitude Azimuth
CZ-4C R/B 4.0 03:21:04 37° NE 03:21:04 37° NE 03:27:06 10° E
SL-16 R/B 4.2 03:30:49 23° E 03:30:49 23° E 03:33:26 10° ESE
ATLAS 5 CENTAUR R/B 4.1 03:55:56 19° ENE 03:55:56 19° ENE 03:57:47 10° ENE
USA 234 3.2 04:11:48 10° ENE 04:18:22 76° SE 04:18:22 76° SE
COSMO-SKYMED 1 3.8 04:32:47 10° SE 04:36:50 40° ENE 04:36:55 40° ENE
Cosmos 2297 Rocket 2.4 04:38:22 63° NNE 04:38:22 63° NNE 04:43:07 10° NNE
Cosmos 2227 Rocket 2.2 04:41:39 74° NNE 04:41:39 74° NNE 04:46:48 10° NNE
Cosmos 1607 4.0 04:40:14 59° S 04:41:20 73° SE 04:47:29 10° NE
Cosmos 1461 4.3 04:44:46 34° NE 04:44:46 34° NE 04:48:23 10° ESE
Cosmos 1862 Rocket 4.4 04:48:11 47° SE 04:48:11 47° SE 04:51:30 10° SSE
Cosmos 1190 Rocket 4.3 04:49:56 49° NNE 04:51:04 62° ENE 04:56:15 10° SE
Cosmos 2219 4.0 04:53:19 38° N 04:53:19 38° N 04:57:05 10° NNE
Cosmos 2034 Rocket 4.5 04:46:12 10° S 04:52:22 60° E 04:58:37 10° NNE
Cosmos 2084 Rocket 4.2 04:54:39 49° NE 04:54:39 49° NE 04:58:52 10° ESE
Cosmos 1943 4.4 04:58:10 20° N 05:01:26 38° NE 05:06:38 10° ESE
Lacrosse 5 3.0 05:04:54 30° SSW 05:04:54 30° SSW 05:08:06 10° SSE
Geosat 4.1 05:00:09 10° SSE 05:04:38 59° SSW 05:04:38 59° SSW
CZ-4C R/B 2.8 05:06:17 42° NW 05:09:06 80° SW 05:17:16 10° SE
Meteor 1-27 Rocket 3.7 05:08:16 31° NNW 05:11:15 74° W 05:17:09 10° S
Meteor 2-11 Rocket 4.5 05:06:03 10° S 05:12:08 80° E 05:18:17 10° NNE
STARLINK 1058 4.4 05:13:36 37° ENE 05:13:36 37° ENE 05:15:59 10° E
SL-16 R/B 2.3 05:12:45 53° WSW 05:12:45 53° WSW 05:18:12 10° S
Cosmos 1241 Rocket 4.4 05:13:58 51° W 05:14:57 57° WSW 05:21:00 10° SSE
STARLINK 1043 4.2 05:16:19 40° NE 05:16:19 40° NE 05:18:50 10° E
STARLINK 1065 4.1 05:18:34 42° NE 05:18:34 42° NE 05:21:11 10° E
Cosmos 1603 4.1 05:15:11 23° NNW 05:18:44 61° ENE 05:24:25 10° SE
Cosmos 1092 Rocket 4.2 05:12:46 10° N 05:18:58 68° ENE 05:25:05 10° SSE
STARLINK 1063 4.0 05:21:14 45° NE 05:21:14 45° NE 05:23:57 10° E
Cosmos 1891 Rocket 4.4 05:15:36 10° SSW 05:22:00 66° WNW 05:28:19 10° N
STARLINK 1064 3.8 05:23:38 47° NE 05:23:38 47° NE 05:26:28 10° E
SKYMED 2 3.4 05:20:35 10° S 05:24:54 71° WSW 05:25:37 58° NW
Cosmos 2082 3.6 05:22:30 31° SW 05:25:16 69° WNW 05:30:54 10° NNE
STARLINK 1041 3.7 05:26:21 50° NE 05:26:21 50° NE 05:29:20 10° E
Cosmos 1464 Rocket 3.9 05:20:50 10° SSW 05:26:57 60° WNW 05:33:04 10° N
STARLINK 1038 3.6 05:28:55 53° NNE 05:28:55 53° NNE 05:32:01 10° E
ALOS 2.6 05:25:36 10° NNE 05:30:16 66° ESE 05:34:55 10° S
STARLINK 1046 3.4 05:31:27 55° NNE 05:31:27 55° NNE 05:34:40 10° E
METEOR-M 4.4 05:26:59 10° NNE 05:32:21 68° ESE 05:37:40 10° S
STARLINK 1039 3.3 05:34:00 57° NNE 05:34:00 57° NNE 05:37:20 10° E
STARLINK 1045 3.3 05:34:32 57° NNE 05:34:33 57° NNE 05:37:54 10° E
ATLAS 5 CENTAUR R/B 1.8 05:37:30 46° WNW 05:38:07 49° NW 05:42:57 10° NE
NOSS 2-1 (C) 4.3 05:36:30 32° NW 05:39:14 88° SW 05:46:32 10° SE
Cosmos 1371 Rocket 3.9 05:35:26 10° SSW 05:40:41 83° WNW 05:45:57 10° NNE
NOSS 2-1 (D) 4.3 05:39:58 31° NW 05:42:47 84° SW 05:50:07 10° SE
Cosmos 407 Rocket 3.8 05:42:35 34° WNW 05:44:19 46° WSW 05:49:24 10° S
SJ-12 3.8 05:41:47 10° N 05:45:56 73° WNW 05:50:01 10° SSW
Cosmos 614 Rocket 4.3 05:45:45 35° WNW 05:46:55 41° WSW 05:51:39 10° S
PSLV R/B 4.0 05:43:37 10° N 05:47:36 52° WNW 05:51:35 10° SSW
CZ-4B DEB 4.1 05:43:37 10° NNE 05:49:09 84° WNW 05:54:42 10° SSW
Cosmos 1484 Rocket 3.0 05:45:35 10° N 05:49:26 47° WNW 05:53:12 10° SW
Cosmos 1933 Rocket 3.5 05:47:56 10° SSW 05:52:12 58° WNW 05:56:31 10° N
ATLAS CENTAUR R/B 3.8 05:51:40 11° NNW 05:53:40 14° NNE 05:55:56 10° NE
Cosmos 1140 Rocket 3.6 05:51:01 25° NW 05:53:51 53° WSW 05:58:54 10° S
FALCON 9 DEB 2.3 05:56:44 72° ESE 05:56:44 72° ESE 05:58:54 10° ESE
Okean 1-7 2.9 05:52:57 10° NNW 05:57:23 78° W 06:01:46 10° S
CZ-2C R/B 4.0 05:55:16 10° N 05:56:35 16° NNW 05:56:35 16° NNW
Nadezhda 4 Rocket 4.3 05:55:24 10° NNW 06:01:13 42° W 06:06:57 10° SSW
USA 234 3.4 05:54:55 10° ENE 06:01:16 56° NNW 06:05:43 20° W
Cosmos 1340 4.2 05:59:13 10° SSE 06:02:44 39° E 06:06:16 10° NNE
STARLINK 1034 2.6 06:03:55 45° WNW 06:04:42 80° NNE 06:07:39 10° ESE
STARLINK 1027 2.6 06:05:54 43° WNW 06:06:44 82° NNE 06:09:40 10° ESE
STARLINK 1052 2.6 06:05:55 42° WNW 06:06:47 82° NNE 06:09:43 10° ESE
STARLINK 1028 2.6 06:06:07 43° WNW 06:06:58 82° NNE 06:09:54 10° ESE
STARLINK 1021 2.6 06:06:20 42° WNW 06:07:10 83° NNE 06:10:06 10° ESE
STARLINK 1019 2.6 06:06:31 41° WNW 06:07:24 83° NNE 06:10:23 10° ESE
STARLINK 1012 2.6 06:06:43 42° WNW 06:07:35 83° NNE 06:10:31 10° ESE
STARLINK 1010 2.6 06:06:58 42° WNW 06:07:50 83° NNE 06:10:46 10° ESE
STARLINK 1026 2.6 06:07:11 41° WNW 06:08:04 84° NNE 06:11:00 10° ESE
STARLINK 1013 2.6 06:07:24 41° WNW 06:08:18 84° NNE 06:11:13 10° ESE
STARLINK 1009 2.6 06:07:37 41° WNW 06:08:31 84° NNE 06:11:28 10° ESE
STARLINK 1015 2.6 06:07:49 40° WNW 06:08:44 84° NNE 06:11:41 10° ESE
Cosmos 1428 Rocket 4.5 06:02:37 10° N 06:08:58 84° W 06:15:17 10° S
STARLINK 1016 2.6 06:08:03 40° WNW 06:08:58 85° NNE 06:11:55 10° ESE
STARLINK 1017 2.6 06:08:12 40° WNW 06:09:09 85° NNE 06:12:05 10° ESE
STARLINK 1008 2.6 06:08:17 40° WNW 06:09:11 85° NNE 06:12:08 10° ESE
Okean O Rocket 1.5 06:04:53 10° N 06:09:16 73° WNW 06:13:38 10° SSW
STARLINK 1014 2.6 06:08:29 40° WNW 06:09:26 85° NNE 06:12:21 10° ESE
STARLINK 1025 2.6 06:08:43 39° WNW 06:09:40 85° NNE 06:12:35 10° ESE
STARLINK 1040 2.6 06:08:57 39° WNW 06:09:55 89° NNE 06:12:52 10° ESE
STARLINK 1023 2.6 06:09:09 39° WNW 06:10:06 86° NNE 06:13:02 10° ESE
STARLINK 1007 2.6 06:09:21 38° WNW 06:10:19 86° NNE 06:13:15 10° ESE
STARLINK 1048 2.6 06:09:35 38° WNW 06:10:33 86° NNE 06:13:29 10° ESE
STARLINK 1049 2.6 06:09:47 38° WNW 06:10:46 87° NNE 06:13:43 10° ESE
Cosmos 2263 Rocket 2.7 06:05:21 10° SSW 06:10:51 62° ESE 06:16:22 10° NE
STARLINK 1051 2.6 06:10:01 38° WNW 06:11:00 87° NNE 06:13:57 10° ESE
STARLINK 1037 2.6 06:10:13 37° WNW 06:11:13 87° NNE 06:14:09 10° ESE
STARLINK 1059 2.6 06:10:25 37° WNW 06:11:26 87° NNE 06:14:22 10° ESE
STARLINK 1057 2.6 06:10:39 37° WNW 06:11:40 88° NNE 06:14:37 10° ESE
STARLINK 1068 2.6 06:11:05 36° WNW 06:12:07 88° NNE 06:15:03 10° ESE
STARLINK 1029 2.6 06:11:18 36° WNW 06:12:21 88° NE 06:15:17 10° ESE
STARLINK 1060 2.6 06:11:31 36° WNW 06:12:34 89° NE 06:15:30 10° ESE
STARLINK 1030 2.6 06:11:41 35° WNW 06:12:47 89° N 06:15:45 10° ESE
STARLINK 1020 2.6 06:11:56 36° WNW 06:13:00 89° N 06:15:56 10° ESE
COSMO-SKYMED 1 3.6 06:09:34 10° SSW 06:13:09 25° W 06:14:08 23° WNW
Cosmos 2227 4.3 06:07:36 10° SSW 06:13:21 84° ESE 06:19:10 10° NNE
STARLINK 1033 2.6 06:12:35 35° WNW 06:13:41 90° NW 06:16:37 10° ESE
STARLINK 1031 2.6 06:12:49 35° WNW 06:13:55 90° SE 06:16:51 10° ESE
STARLINK 1024 2.6 06:12:59 34° WNW 06:14:09 89° SSE 06:17:07 10° ESE
STARLINK 1035 2.6 06:13:15 34° WNW 06:14:22 89° SW 06:17:18 10° ESE
Cosmos 2242 Rocket 4.5 06:12:26 20° NW 06:14:26 28° W 06:18:18 10° SSW
STARLINK 1032 2.6 06:13:28 34° WNW 06:14:35 89° SW 06:17:31 10° ESE
STARLINK 1011 2.6 06:13:38 33° WNW 06:14:47 89° SW 06:17:46 10° ESE
STARLINK 1036 2.6 06:13:55 33° WNW 06:15:03 88° SSW 06:17:59 10° ESE
STARLINK 1047 2.6 06:14:21 33° WNW 06:15:31 88° SSW 06:18:27 10° ESE
Radarsat Rocket 4.3 06:10:48 10° NNE 06:16:50 75° ESE 06:23:28 10° SSW
CZ-4 R/B 4.4 06:17:04 10° NE 06:19:22 15° E 06:21:41 10° SE
FALCON 9 DEB 2.3 06:18:51 37° W 06:19:31 59° SSW 06:21:52 10° SE
Cosmos 1346 Rocket 3.4 06:16:31 10° S 06:20:19 58° E 06:24:09 10° NNE
ADEOS Rocket 3.5 06:13:32 10° SSE 06:20:40 77° ENE 06:27:06 10° NNW
Meteor 1-25 Rocket 4.2 06:15:58 10° SSW 06:21:31 68° WNW 06:27:11 10° N
Cosmos 2297 Rocket 3.4 06:20:14 18° WNW 06:22:16 22° NW 06:26:38 10° N
Cosmos 1461 3.5 06:21:11 20° WNW 06:23:36 39° WSW 06:27:39 10° S
STARLINK 1050 3.0 06:21:43 24° WNW 06:23:37 83° SSW 06:26:58 10° ESE
Cosmos 2026 Rocket 4.0 06:18:07 10° NNW 06:24:07 59° W 06:30:12 10° S
FALCON 9 DEB 2.5 06:24:30 30° W 06:25:24 52° SSW 06:27:44 10° SE
CZ-4B R/B 3.2 06:19:55 10° N 06:25:26 66° WNW 06:31:00 10° SSW
Cosmos 1624 Rocket 4.3 06:20:32 10° SW 06:25:37 44° WNW 06:30:45 10° NNE
PAYLOAD B 4.4 06:20:23 10° N 06:25:42 51° WNW 06:31:01 10° SW
Cosmos 2227 Rocket 3.4 06:23:32 17° WNW 06:25:56 22° NW 06:30:20 10° N
STARLINK 1055 3.0 06:24:25 22° WNW 06:26:27 80° SSW 06:29:48 10° ESE
Cosmos 1703 Rocket 4.2 06:22:58 10° NNW 06:27:00 34° W 06:31:00 10° SSW
STARLINK 1022 3.0 06:25:55 21° WNW 06:28:01 79° SSW 06:31:21 10° ESE
Cosmos 2056 Rocket 3.8 06:25:35 10° SW 06:30:24 41° WNW 06:35:16 10° NNE
STARLINK 1042 3.1 06:29:14 20° WNW 06:31:27 75° SSW 06:34:48 10° ESE
IRS-1C Rocket 4.4 06:26:26 10° NNE 06:31:43 71° ESE 06:36:57 10° S
Cosmos 1655 Rocket 4.1 06:27:26 10° N 06:33:42 85° E 06:39:56 10° S
STARLINK 1056 3.1 06:31:33 19° WNW 06:33:51 73° SSW 06:37:11 10° ESE
Helios 1A Rocket 3.2 06:31:00 10° N 06:34:49 41° WNW 06:38:36 10° SW
Cosmos 2279 Rocket 4.0 06:29:41 10° S 06:35:53 87° W 06:42:09 10° N
STARLINK 1054 3.1 06:34:07 18° WNW 06:36:31 70° SSW 06:39:51 10° SE
FENGYUN 3A 4.0 06:32:18 10° N 06:37:19 41° WNW 06:42:19 10° SW
Meteor 1-19 Rocket 4.2 06:31:54 10° NNW 06:37:20 65° W 06:42:48 10° S
Cosmos 1634 Rocket 4.1 06:32:54 10° SSW 06:38:58 54° WNW 06:45:03 10° N
STARLINK 1062 3.2 06:36:29 17° WNW 06:38:59 67° SSW 06:42:19 10° SE
Cosmos 1733 Rocket 3.8 06:37:19 10° S 06:41:33 57° E 06:45:48 10° NNE
STARLINK 1053 3.2 06:39:32 15° WNW 06:42:09 64° SSW 06:45:29 10° SE
H-2A R/B 2.6 06:40:05 10° N 06:43:48 79° WNW 06:47:32 10° SSW
STARLINK 1061 3.3 06:41:31 15° WNW 06:44:12 62° SSW 06:47:32 10° SE
Cosmos 1943 3.6 06:40:16 10° NW 06:45:34 44° WSW 06:50:51 10° S
Starlink Launch 2 leader 3.3 06:44:13 15° W 06:45:55 33° SSW 06:48:12 10° SE
STARLINK 1067 3.3 06:44:05 14° WNW 06:46:53 60° SSW 06:50:11 10° SE
Cosmos 1869 Rocket 3.9 06:42:54 10° SSW 06:47:01 42° WNW 06:51:11 10° N
STARLINK 1044 3.2 06:44:46 14° WNW 06:47:01 49° SSW 06:49:49 10° SE
Okean 1 4.1 06:43:48 10° NNW 06:47:20 31° W 06:50:51 10° SSW
STARLINK 1058 3.4 06:46:33 13° WNW 06:49:26 57° SSW 06:52:44 10° SE
Starlink Launch 2 trailer 3.5 06:47:46 13° W 06:49:36 31° SSW 06:51:49 10° SSE
STARLINK 1043 3.4 06:49:18 12° WNW 06:52:18 55° SSW 06:55:36 10° SE
Cosmos 1420 Rocket 4.1 06:48:16 10° SW 06:53:21 53° WNW 06:58:28 10° NNE
Cosmos 2082 Rocket 4.4 06:50:12 10° N 06:53:30 15° NNE 06:56:48 10° ENE
STARLINK 1065 3.5 06:51:32 11° WNW 06:54:36 53° SSW 06:57:54 10° SE
CZ-4C R/B 4.2 06:51:31 10° WNW 06:57:05 23° WSW 07:03:04 10° SSW
STARLINK 1063 3.5 06:54:12 11° WNW 06:57:23 51° SSW 07:00:39 10° SE
Cosmos 1741 Rocket 4.3 06:54:15 10° NNW 06:59:17 50° WSW 07:04:19 10° S
CZ-2C R/B 3.8 06:54:43 10° S 06:59:23 65° WSW 07:04:09 10° NNW
STARLINK 1064 3.6 06:56:36 10° WNW 06:59:52 49° SSW 07:03:08 10° SE
Meteor 2-4 Rocket 3.7 06:54:20 10° NNW 06:59:53 65° W 07:05:15 10° S
SMAP 3.1 06:56:30 10° N 07:01:08 63° WNW 07:05:42 10° SSW
BREEZE-M DEB (TANK) 3.6 07:01:01 10° WSW 07:02:28 16° SSW 07:04:28 10° SSE
STARLINK 1041 3.7 06:59:29 10° WNW 07:02:45 47° SSW 07:06:00 10° SE
Feng Yun 1-1 Rocket 4.2 06:57:54 10° NNE 07:03:26 76° WNW 07:09:04 10° SSW
STARLINK 1038 3.8 07:02:10 10° WNW 07:05:24 45° SSW 07:08:39 10° SE
ALOS 3.6 07:03:58 10° NNW 07:07:14 19° WNW 07:10:30 10° WSW
Cosmos 1674 Rocket 3.5 07:03:00 10° NNW 07:07:24 83° W 07:11:44 10° S
YAOGAN 6 3.0 07:04:18 10° NNE 07:07:58 69° ESE 07:11:39 10° S
STARLINK 1046 3.8 07:04:49 10° WNW 07:08:03 43° SSW 07:11:17 10° SE
YAOGAN 1 4.2 07:05:20 10° NNE 07:09:26 39° E 07:13:30 10° SSE
Okean 3 4.0 07:06:32 10° NNW 07:10:27 39° W 07:14:21 10° SSW
